SCP
0 0 0 0 0 0 0 0 0 0 0 0 0 0 0 0 0 0 0 0 0 0 0 0 0 0 0 0 0 0 0 0 0 0 0 0 0 0 0 0 0 0 0
0 0 0 0 0 0 0 0 0 0 0 0 0 0 0 0 0 0 0 0 0 0 0 0 0 0 0 0 0 0 0 0 0 0 0 0 0 0 0 0 0 0 0
0 0 0 0 0 0 0 0 0 0 0 0 0 0 0 0 0 0 0 0 0 0 0 0 0 0 0 0 0 0 0 0 0 0 0 0 0 0 0 0 0 0 0
0 0 0 0 0 0 0 0 0 0 0 0 0 0 0 0 0 0 0 0 0 0 0 0 0 0 0 0 0 0 0 0 0 0 0 0 0 0 0 0 0 0 0
0 0 0 0 0 0 0 0 0 0 0 0 0 0 0 0 0 0 0 0 0 0 0 0 0 0 0 0 0 0 0 0 0 0 0 0 0 0 0 0 0 0 0
0 0 0 0 0 0 0 0 0 0 0 0 0 0 0 0 0 0 0 0 0 0 0 0 0 0 0 0 0 0 0 0 0 0 0 0 0 0 0 0 0 0 0
0 0 0 0 0 0 0 0 0 0 0 0 0 0 0 0 0 0 0 0 0 0 0 0 0 0 0 0 0 0 0 0 0 0 0 0 0 0 0 0 0 0 0
0 0 0 0 0 0 0 0 0 0 0 0 0 0 0 0 0 0 0 0 0 0 0 0 0 0 0 0 0 0 0 0 0 0 0 0 0 0 0 0 0 0 0
0 0 0 0 0 0 0 0 0 0 0 0 0 0 0 0 0 0 0 0 0 0 0 0 0 0 0 0 0 0 0 0 0 0 0 0 0 0 0 0 0 0 0
0 0 0 0 0 0 0 0 0 0 0 0 0 0 0 0 0 0 0 0 0 0 0 0 0 0 0 0 0 0 0 0 0 0 0 0 0 0 0 0 0 0 0
0 0 0 0 0 0 0 0 0 0 0 0 0 0 0 0 0 0 0 0 0 0 0 0 0 0 0 0 0 0 0 0 0 0 0 0 0 0 0 0 0 0 0
0 0 0 0 0 0 0 0 0 0 0 0 0 0 0 0 0 0 0 0 0 0 0 0 0 0 0 0 0 0 0 0 0 0 0 0 0 0 0 0 0 0 0
0 0 0 0 0 0 0 0 0 0 0 0 0 0 0 0 0 0 0 0 0 0 0 0 0 0 0 0 0 0 0 0 0 0 0 0 0 0 0 0 0 0 0
0 0 0 0 0 0 0 0 0 0 0 0 0 0 0 0 0 0 0 0 0 0 0 0 0 0 0 0 0 0 0 0 0 0 0 0 0 0 0 0 0 0 0
0 0 0 0 0 0 0 0 0 0 0 0 0 0 0 0 0 0 0 0 0 0 0 0 0 0 0 0 0 0 0 0 0 0 0 0 0 0 0 0 0 0 0
0 0 0 0 0 0 0 0 0 0 0 0 0 0 0 0 0 0 0 0 0 0 0 0 0 0 0 0 0 0 0 0 0 0 0 0 0 0 0 0 0 0 0
0 0 0 0 0 0 0 0 0 0 0 0 0 0 0 0 0 0 0 0 0 0 0 0 0 0 0 0 0 0 0 0 0 0 0 0 0 0 0 0 0 0 0
0 0 0 0 0 0 0 0 0 0 0 0 0 0 0 0 0 0 0 0 0 0 0 0 0 0 0 0 0 0 0 0 0 0 0 0 0 0 0 0 0 0 0
0 0 -0 0 -0 0 0 0 0 0 0 0 0 0 0 0 0 0 0 0 0 0 0 0 0 0 0 0 0 0 0 0 0 0 0 0 0 0 0 0 0 0 0
0 0 0 0 0 0 0 0 0 0 0 0 0 0 0 0 0 0 0 0 0 0 0 0 0 0 0 0 0 0 0 0 0 0 0 0 0 0 0 0 0 0 0
0 0 0 0 0 0 0 0 0 0 0 0 0 0 0 0 0 0 0 0 0 0 0 0 0 0 0 0 0 0 0 0 0 0 0 0 0 0 0 0 0 0 0
0 0 0 0 0 0 0 0 0 0 0 0 0 0 0 0 0 0 0 0 0 0 0 0 0 0 0 0 0 0 0 0 0 0 0 0 0 0 0 0 0 0 0
0 0 0 0 0 0 0 0 0 0 0 0 0 0 0 0 0 0 0 0 0 0 0 0 0 0 0 0 0 0 0 0 0 0 0 0 0 0 0 0 0 0 0
0 0 0 0 0 0 0 0 0 0 0 0 0 0 0 0 0 0 0 0 0 0 0 0 0 0 0 0 0 0 0 0 0 0 0 0 0 0 0 0 0 0 0
0 0 0 0 0 0 0 0 0 0 0 0 0 0 0 0 0 0 0 0 0 0 0 0 0 0 0 0 0 0 0 0 0 0 0 0 0 0 0 0 0 0 0
0 0 0 0 0 0 0 0 0 0 0 0 0 0 0 0 0 0 0 0 0 0 0 0 0 0 0 0 0 0 0 0 0 0 0 0 0 0 0 0 0 0 0
Wind_Speed_500mb
38 47 60 60 59 59 57 54 47 40 42 43 45 49 52 47 48 43 37 35 37 36 39 39 34 32 34 33 33 36 37 35 41 41 44 42 37 36 20 16 9 10 11
26 24 38 51 63 50 52 60 54 43 41 41 41 43 40 40 38 36 36 34 33 35 36 37 38 36 38 40 38 36 38 39 42 45 41 25 28 21 15 24 14 12 12
7 11 24 33 61 60 44 47 52 46 42 40 39 40 39 41 40 36 38 37 37 37 40 38 38 38 40 42 41 40 41 44 44 44 40 11 9 17 26 16 16 16 16
9 6 3 16 48 58 43 47 51 51 51 49 48 48 44 40 32 35 35 33 32 32 35 38 40 40 42 43 42 40 42 45 45 46 42 33 29 21 15 17 18 19 21
24 8 11 6 5 21 32 36 39 45 46 44 45 46 48 40 34 38 39 40 40 40 38 39 40 41 35 34 36 40 41 40 41 37 31 29 31 33 35 32 29 28 25
27 18 5 3 6 6 10 22 26 26 30 29 34 38 49 48 52 46 40 43 41 38 36 38 38 40 41 38 40 42 38 35 34 34 34 34 30 32 29 35 36 32 25
25 22 21 13 5 9 8 11 18 24 34 36 40 43 43 45 41 43 43 44 44 43 44 46 47 47 46 44 40 36 38 34 33 33 32 31 36 29 32 30 32 31 31
28 29 28 25 20 15 7 10 18 24 26 26 25 27 30 33 36 36 36 35 37 38 38 35 33 31 30 31 34 30 24 27 27 28 26 30 22 29 30 33 34 37 32
29 31 28 27 25 21 16 11 6 8 12 17 20 22 22 23 24 25 25 26 24 22 20 20 21 20 20 20 18 13 14 18 22 24 21 23 28 30 32 34 30 28 22
28 28 25 23 21 20 20 18 14 9 4 5 8 10 12 12 11 11 10 12 12 12 12 11 12 14 13 12 10 11 13 17 19 20 23 27 30 33 29 25 22 22 23
33 32 28 22 18 16 16 16 15 13 9 4 4 4 5 6 7 9 8 9 8 9 9 9 10 12 12 14 14 17 17 19 20 22 26 26 25 21 19 18 17 17 18
33 33 32 28 25 22 20 18 16 14 13 12 13 11 11 12 10 9 9 8 7 7 8 9 9 11 12 12 13 15 16 16 15 15 16 15 15 15 15 14 15 17 19
33 31 30 32 31 25 20 20 20 18 16 13 9 8 12 13 10 10 11 11 10 9 8 8 9 9 11 12 12 11 12 12 12 12 13 14 15 15 15 16 18 21 23
33 34 36 36 32 31 30 23 17 16 18 19 16 13 12 12 12 13 12 11 10 8 9 10 11 12 12 12 11 11 11 11 12 13 13 14 15 16 18 21 22 23 24
31 35 37 38 37 34 31 26 25 21 17 18 21 22 21 19 19 18 16 16 16 14 13 12 11 12 12 11 10 10 11 12 12 14 15 17 17 20 22 23 23 23 22
27 30 32 34 38 40 38 34 30 26 25 26 22 21 25 29 28 26 23 23 22 18 15 13 14 14 13 14 14 14 13 15 15 16 17 19 21 20 21 22 21 20 17
24 27 31 34 35 35 37 38 37 33 30 29 27 29 30 30 30 30 30 28 26 22 23 18 14 14 16 15 16 19 18 18 19 20 21 21 21 21 18 19 18 14 13
29 30 32 32 31 31 32 33 35 35 33 29 29 33 34 33 34 36 33 30 30 31 30 17 14 17 19 17 19 18 20 18 17 19 19 19 17 15 14 14 11 9 9
35 36 36 36 34 34 34 33 32 32 34 34 30 28 32 37 39 39 41 36 34 32 27 19 13 22 26 21 21 24 20 21 17 17 17 15 13 13 11 8 8 9 11
32 34 33 33 35 34 36 39 38 35 33 33 33 31 30 34 37 37 37 38 35 30 27 19 21 22 25 30 25 22 19 19 19 16 13 12 11 8 8 7 7 10 13
37 35 30 30 34 34 36 37 38 38 35 32 32 30 27 26 29 32 31 31 30 24 23 25 27 25 23 23 23 21 20 17 19 17 13 11 9 8 8 7 11 11 8
35 34 31 34 38 37 34 32 33 34 34 31 28 25 20 16 18 22 23 25 24 23 24 22 24 23 19 29 29 22 23 20 22 19 17 14 10 8 9 9 8 6 4
36 37 42 47 42 36 30 30 30 26 24 22 19 15 10 6 4 7 15 17 15 13 15 16 19 18 26 32 27 21 25 29 26 22 20 18 12 10 9 6 5 2 2
46 47 48 48 44 33 29 28 25 19 15 15 10 3 2 1 2 8 12 23 27 23 19 20 24 35 39 31 31 25 22 26 29 28 22 16 13 11 8 6 6 5 5
47 49 48 49 42 33 29 24 22 21 16 16 6 4 5 7 9 11 16 18 17 15 19 23 32 33 33 27 31 28 22 23 25 23 18 15 16 13 10 10 8 8 7
45 46 44 43 36 34 35 30 28 25 23 21 18 20 22 22 25 26 26 27 28 29 27 29 39 41 34 34 31 30 29 28 29 25 21 18 18 16 15 13 12 11 9
Wind_Direction_500mb
233 224 221 216 214 219 228 230 229 227 224 227 229 228 234 239 242 246 253 256 261 262 261 261 261 261 267 273 273 272 273 274 276 286 286 294 303 312 318 328 303 267 253
244 237 227 222 216 219 228 228 230 231 230 231 234 236 241 245 249 253 259 267 262 259 263 264 268 269 270 271 273 274 278 272 274 273 283 295 302 301 299 304 271 263 264
238 236 225 220 212 222 238 225 228 233 233 241 240 238 239 243 246 251 253 255 263 265 267 268 268 269 269 272 275 274 274 276 279 277 274 262 245 303 306 299 250 247 263
79 68 303 232 214 223 228 223 227 230 232 233 236 236 240 245 254 253 261 267 261 261 263 265 266 269 270 271 274 277 276 277 279 281 279 274 274 290 290 276 255 247 246
35 48 62 50 201 219 233 232 235 242 243 249 249 245 245 251 254 262 263 265 264 267 265 264 266 267 268 272 271 271 275 277 280 280 281 288 282 279 271 275 259 258 246
45 58 67 299 336 289 242 237 256 257 266 253 257 268 259 258 259 258 262 262 263 262 261 263 262 266 271 270 264 266 269 275 270 275 274 276 280 273 275 276 270 249 242
41 49 63 80 200 233 229 235 237 242 245 252 252 248 247 236 243 253 256 261 263 262 262 262 264 268 267 266 269 269 271 265 268 265 268 274 266 265 275 272 272 267 267
31 30 34 33 34 31 356 271 251 247 248 247 246 244 245 249 252 254 256 258 261 264 266 267 268 269 270 272 271 265 257 260 265 268 265 264 263 265 267 277 273 271 254
29 20 24 27 23 19 12 9 349 286 268 260 255 254 257 258 257 260 262 261 258 257 255 257 260 261 266 265 262 263 256 257 261 267 255 258 264 274 281 281 270 262 258
37 31 28 22 12 8 4 2 357 348 329 282 271 266 263 258 255 245 237 241 243 249 255 258 264 272 276 272 265 258 254 257 269 276 274 270 278 283 283 279 269 259 252
36 29 27 22 15 4 355 351 350 339 328 295 217 219 233 228 227 233 230 238 248 259 262 265 273 282 293 293 287 278 278 276 270 266 268 271 276 278 278 274 271 270 267
45 39 37 32 22 10 360 352 342 329 319 314 303 269 221 207 216 223 221 229 242 255 267 274 279 291 289 286 287 280 274 269 270 271 271 274 275 278 281 283 282 279 277
46 40 33 31 29 23 14 3 347 333 323 310 300 298 304 296 268 231 227 228 227 248 264 280 290 296 293 295 288 283 282 278 277 274 274 275 277 280 283 287 291 296 300
49 45 39 32 23 16 12 3 353 338 325 315 303 291 285 279 272 269 259 250 251 254 278 287 289 294 294 292 292 285 279 276 271 269 273 280 286 292 299 302 306 310 310
38 32 28 25 21 18 13 1 350 332 311 305 303 298 289 281 274 269 266 260 250 243 252 264 273 278 278 267 262 268 275 276 282 287 289 291 295 303 309 314 315 313 313
29 19 13 10 6 1 1 356 350 332 318 301 288 287 293 294 288 276 262 256 257 258 255 266 269 269 281 287 284 283 285 287 287 287 290 295 302 307 311 312 316 316 323
15 4 0 357 353 348 342 338 338 335 325 308 290 276 273 270 272 276 276 275 273 273 268 252 258 271 273 275 282 283 277 279 283 288 291 297 305 313 320 321 319 323 331
356 348 343 345 347 347 343 334 327 323 322 318 305 286 275 270 268 261 255 260 267 270 252 245 262 275 278 284 282 281 282 276 280 282 284 291 299 309 313 306 311 324 335
341 337 336 337 340 342 343 340 332 324 318 317 310 297 280 273 269 264 260 253 242 239 236 237 254 287 274 275 277 274 276 284 282 281 283 284 295 303 301 296 300 310 324
321 320 320 325 326 330 335 338 340 335 325 318 312 305 292 278 268 263 259 253 241 226 238 246 251 270 284 280 278 282 279 280 279 266 267 274 280 274 261 252 276 304 321
305 308 310 321 328 328 328 333 334 336 334 326 318 311 303 288 269 257 251 242 237 235 248 255 260 263 262 278 281 274 266 262 263 261 264 265 252 235 240 268 284 293 314
307 304 297 309 316 314 315 323 329 332 335 335 326 317 310 301 283 265 248 224 237 242 247 257 255 252 280 284 278 268 257 252 244 250 257 254 242 246 259 282 286 286 309
302 300 297 302 308 302 301 309 315 321 329 336 333 327 336 337 296 247 221 202 209 238 256 264 289 293 290 283 273 265 254 243 239 239 247 252 248 249 267 259 251 256 195
294 297 293 295 298 288 287 299 303 308 329 346 346 5 350 240 222 238 257 271 263 259 272 281 295 289 283 275 272 262 250 235 236 240 244 239 249 261 253 222 195 180 170
298 296 291 294 291 272 270 281 287 278 289 303 292 266 280 278 266 264 276 285 283 285 294 290 282 275 273 275 258 255 254 243 237 236 234 231 237 233 216 200 186 183 181
298 293 287 289 290 273 268 268 274 277 269 267 272 267 261 262 270 268 265 267 273 273 271 267 269 273 265 250 249 244 245 239 231 231 227 233 236 228 209 198 188 193 202
Wind_Speed_850mb
38 47 60 60 59 59 57 54 47 40 42 43 45 49 52 47 48 43 37 35 37 36 39 39 34 32 34 33 33 36 37 35 41 41 44 42 37 36 20 16 9 10 11
26 24 38 51 63 50 52 60 54 43 41 41 41 43 40 40 38 36 36 34 33 35 36 37 38 36 38 40 38 36 38 39 42 45 41 25 28 21 15 24 14 12 12
7 11 24 33 61 60 44 47 52 46 42 40 39 40 39 41 40 36 38 37 37 37 40 38 38 38 40 42 41 40 41 44 44 44 40 11 9 17 26 16 16 16 16
9 6 3 16 48 58 43 47 51 51 51 49 48 48 44 40 32 35 35 33 32 32 35 38 40 40 42 43 42 40 42 45 45 46 42 33 29 21 15 17 18 19 21
24 8 11 6 5 21 32 36 39 45 46 44 45 46 48 40 34 38 39 40 40 40 38 39 40 41 35 34 36 40 41 40 41 37 31 29 31 33 35 32 29 28 25
27 18 5 3 6 6 10 22 26 26 30 29 34 38 49 48 52 46 40 43 41 38 36 38 38 40 41 38 40 42 38 35 34 34 34 34 30 32 29 35 36 32 25
25 22 21 13 5 9 8 11 18 24 34 36 40 43 43 45 41 43 43 44 44 43 44 46 47 47 46 44 40 36 38 34 33 33 32 31 36 29 32 30 32 31 31
28 29 28 25 20 15 7 10 18 24 26 26 25 27 30 33 36 36 36 35 37 38 38 35 33 31 30 31 34 30 24 27 27 28 26 30 22 29 30 33 34 37 32
29 31 28 27 25 21 16 11 6 8 12 17 20 22 22 23 24 25 25 26 24 22 20 20 21 20 20 20 18 13 14 18 22 24 21 23 28 30 32 34 30 28 22
28 28 25 23 21 20 20 18 14 9 4 5 8 10 12 12 11 11 10 12 12 12 12 11 12 14 13 12 10 11 13 17 19 20 23 27 30 33 29 25 22 22 23
33 32 28 22 18 16 16 16 15 13 9 4 4 4 5 6 7 9 8 9 8 9 9 9 10 12 12 14 14 17 17 19 20 22 26 26 25 21 19 18 17 17 18
33 33 32 28 25 22 20 18 16 14 13 12 13 11 11 12 10 9 9 8 7 7 8 9 9 11 12 12 13 15 16 16 15 15 16 15 15 15 15 14 15 17 19
33 31 30 32 31 25 20 20 20 18 16 13 9 8 12 13 10 10 11 11 10 9 8 8 9 9 11 12 12 11 12 12 12 12 13 14 15 15 15 16 18 21 23
33 34 36 36 32 31 30 23 17 16 18 19 16 13 12 12 12 13 12 11 10 8 9 10 11 12 12 12 11 11 11 11 12 13 13 14 15 16 18 21 22 23 24
31 35 37 38 37 34 31 26 25 21 17 18 21 22 21 19 19 18 16 16 16 14 13 12 11 12 12 11 10 10 11 12 12 14 15 17 17 20 22 23 23 23 22
27 30 32 34 38 40 38 34 30 26 25 26 22 21 25 29 28 26 23 23 22 18 15 13 14 14 13 14 14 14 13 15 15 16 17 19 21 20 21 22 21 20 17
24 27 31 34 35 35 37 38 37 33 30 29 27 29 30 30 30 30 30 28 26 22 23 18 14 14 16 15 16 19 18 18 19 20 21 21 21 21 18 19 18 14 13
29 30 32 32 31 31 32 33 35 35 33 29 29 33 34 33 34 36 33 30 30 31 30 17 14 17 19 17 19 18 20 18 17 19 19 19 17 15 14 14 11 9 9
35 36 36 36 34 34 34 33 32 32 34 34 30 28 32 37 39 39 41 36 34 32 27 19 13 22 26 21 21 24 20 21 17 17 17 15 13 13 11 8 8 9 11
32 34 33 33 35 34 36 39 38 35 33 33 33 31 30 34 37 37 37 38 35 30 27 19 21 22 25 30 25 22 19 19 19 16 13 12 11 8 8 7 7 10 13
37 35 30 30 34 34 36 37 38 38 35 32 32 30 27 26 29 32 31 31 30 24 23 25 27 25 23 23 23 21 20 17 19 17 13 11 9 8 8 7 11 11 8
35 34 31 34 38 37 34 32 33 34 34 31 28 25 20 16 18 22 23 25 24 23 24 22 24 23 19 29 29 22 23 20 22 19 17 14 10 8 9 9 8 6 4
36 37 42 47 42 36 30 30 30 26 24 22 19 15 10 6 4 7 15 17 15 13 15 16 19 18 26 32 27 21 25 29 26 22 20 18 12 10 9 6 5 2 2
46 47 48 48 44 33 29 28 25 19 15 15 10 3 2 1 2 8 12 23 27 23 19 20 24 35 39 31 31 25 22 26 29 28 22 16 13 11 8 6 6 5 5
47 49 48 49 42 33 29 24 22 21 16 16 6 4 5 7 9 11 16 18 17 15 19 23 32 33 33 27 31 28 22 23 25 23 18 15 16 13 10 10 8 8 7
45 46 44 43 36 34 35 30 28 25 23 21 18 20 22 22 25 26 26 27 28 29 27 29 39 41 34 34 31 30 29 28 29 25 21 18 18 16 15 13 12 11 9
Wind_Direction_850mb
233 224 221 216 214 219 228 230 229 227 224 227 229 228 234 239 242 246 253 256 261 262 261 261 261 261 267 273 273 272 273 274 276 286 286 294 303 312 318 328 303 267 253
244 237 227 222 216 219 228 228 230 231 230 231 234 236 241 245 249 253 259 267 262 259 263 264 268 269 270 271 273 274 278 272 274 273 283 295 302 301 299 304 271 263 264
238 236 225 220 212 222 238 225 228 233 233 241 240 238 239 243 246 251 253 255 263 265 267 268 268 269 269 272 275 274 274 276 279 277 274 262 245 303 306 299 250 247 263
79 68 303 232 214 223 228 223 227 230 232 233 236 236 240 245 254 253 261 267 261 261 263 265 266 269 270 271 274 277 276 277 279 281 279 274 274 290 290 276 255 247 246
35 48 62 50 201 219 233 232 235 242 243 249 249 245 245 251 254 262 263 265 264 267 265 264 266 267 268 272 271 271 275 277 280 280 281 288 282 279 271 275 259 258 246
45 58 67 299 336 289 242 237 256 257 266 253 257 268 259 258 259 258 262 262 263 262 261 263 262 266 271 270 264 266 269 275 270 275 274 276 280 273 275 276 270 249 242
41 49 63 80 200 233 229 235 237 242 245 252 252 248 247 236 243 253 256 261 263 262 262 262 264 268 267 266 269 269 271 265 268 265 268 274 266 265 275 272 272 267 267
31 30 34 33 34 31 356 271 251 247 248 247 246 244 245 249 252 254 256 258 261 264 266 267 268 269 270 272 271 265 257 260 265 268 265 264 263 265 267 277 273 271 254
29 20 24 27 23 19 12 9 349 286 268 260 255 254 257 258 257 260 262 261 258 257 255 257 260 261 266 265 262 263 256 257 261 267 255 258 264 274 281 281 270 262 258
37 31 28 22 12 8 4 2 357 348 329 282 271 266 263 258 255 245 237 241 243 249 255 258 264 272 276 272 265 258 254 257 269 276 274 270 278 283 283 279 269 259 252
36 29 27 22 15 4 355 351 350 339 328 295 217 219 233 228 227 233 230 238 248 259 262 265 273 282 293 293 287 278 278 276 270 266 268 271 276 278 278 274 271 270 267
45 39 37 32 22 10 360 352 342 329 319 314 303 269 221 207 216 223 221 229 242 255 267 274 279 291 289 286 287 280 274 269 270 271 271 274 275 278 281 283 282 279 277
46 40 33 31 29 23 14 3 347 333 323 310 300 298 304 296 268 231 227 228 227 248 264 280 290 296 293 295 288 283 282 278 277 274 274 275 277 280 283 287 291 296 300
49 45 39 32 23 16 12 3 353 338 325 315 303 291 285 279 272 269 259 250 251 254 278 287 289 294 294 292 292 285 279 276 271 269 273 280 286 292 299 302 306 310 310
38 32 28 25 21 18 13 1 350 332 311 305 303 298 289 281 274 269 266 260 250 243 252 264 273 278 278 267 262 268 275 276 282 287 289 291 295 303 309 314 315 313 313
29 19 13 10 6 1 1 356 350 332 318 301 288 287 293 294 288 276 262 256 257 258 255 266 269 269 281 287 284 283 285 287 287 287 290 295 302 307 311 312 316 316 323
15 4 0 357 353 348 342 338 338 335 325 308 290 276 273 270 272 276 276 275 273 273 268 252 258 271 273 275 282 283 277 279 283 288 291 297 305 313 320 321 319 323 331
356 348 343 345 347 347 343 334 327 323 322 318 305 286 275 270 268 261 255 260 267 270 252 245 262 275 278 284 282 281 282 276 280 282 284 291 299 309 313 306 311 324 335
341 337 336 337 340 342 343 340 332 324 318 317 310 297 280 273 269 264 260 253 242 239 236 237 254 287 274 275 277 274 276 284 282 281 283 284 295 303 301 296 300 310 324
321 320 320 325 326 330 335 338 340 335 325 318 312 305 292 278 268 263 259 253 241 226 238 246 251 270 284 280 278 282 279 280 279 266 267 274 280 274 261 252 276 304 321
305 308 310 321 328 328 328 333 334 336 334 326 318 311 303 288 269 257 251 242 237 235 248 255 260 263 262 278 281 274 266 262 263 261 264 265 252 235 240 268 284 293 314
307 304 297 309 316 314 315 323 329 332 335 335 326 317 310 301 283 265 248 224 237 242 247 257 255 252 280 284 278 268 257 252 244 250 257 254 242 246 259 282 286 286 309
302 300 297 302 308 302 301 309 315 321 329 336 333 327 336 337 296 247 221 202 209 238 256 264 289 293 290 283 273 265 254 243 239 239 247 252 248 249 267 259 251 256 195
294 297 293 295 298 288 287 299 303 308 329 346 346 5 350 240 222 238 257 271 263 259 272 281 295 289 283 275 272 262 250 235 236 240 244 239 249 261 253 222 195 180 170
298 296 291 294 291 272 270 281 287 278 289 303 292 266 280 278 266 264 276 285 283 285 294 290 282 275 273 275 258 255 254 243 237 236 234 231 237 233 216 200 186 183 181
298 293 287 289 290 273 268 268 274 277 269 267 272 267 261 262 270 268 265 267 273 273 271 267 269 273 265 250 249 244 245 239 231 231 227 233 236 228 209 198 188 193 202